Weather observations for the past three days for
Chino, Chino Airport
| Date | Time (pdt) | Wind (kph) | Vis. (km) | Weather | Sky Cond. | Temperature (ºC) | Relative Humidity | Wind Chill (°C) | Heat Index (°C) | Pressure | Precipitation (cm) | ||||||
|---|---|---|---|---|---|---|---|---|---|---|---|---|---|---|---|---|---|
| Air | Dwpt | 6 hour | altimeter (cm) | sea level (mb) | 1 hr | 3 hr | 6 hr | ||||||||||
| Max. | Min. | ||||||||||||||||
| 10 | 06:53 | Calm | 6.44 | Fog/Mist | OVC005 | 15 | 13.9 | 93% | 76.02 | 1013.1 | |||||||
| 10 | 05:53 | Calm | 6.44 | Fog/Mist | OVC004 | 15 | 13.9 | 93% | 76 | 1012.6 | |||||||
| 10 | 04:53 | NW 6 | 4.83 | Fog/Mist | OVC002 | 14.4 | 13.9 | 15.6 | 12.8 | 97% | 75.97 | 1012.5 | |||||
| 10 | 03:53 | W 9 | 8.05 | Fog/Mist | CLR | 13.9 | 12.8 | 93% | 76 | 1012.4 | |||||||
| 10 | 02:53 | Calm | 9.66 | Fog/Mist | CLR | 13.3 | 12.2 | 93% | 76 | 1012.5 | |||||||
| 10 | 01:53 | W 7 | 9.66 | Fog/Mist | CLR | 13.9 | 12.8 | 93% | 76 | 1012.6 | |||||||
| 10 | 00:53 | W 6 | 11.27 | Fair | CLR | 15 | 13.3 | 90% | 76.02 | 1013.1 | |||||||
| 09 | 23:53 | W 9 | 12.87 | Fair | CLR | 14.4 | 12.8 | 90% | 76.02 | 1013.1 | |||||||
| 09 | 22:53 | W 11 | 14.48 | Fair | CLR | 15 | 13.3 | 28.3 | 15 | 90% | 76.02 | 1013.2 | |||||
| 09 | 21:53 | W 7 | 16.09 | Fair | CLR | 16.1 | 13.3 | 84% | 76.02 | 1013.0 | |||||||
| 09 | 20:53 | W 17 | 16.09 | Fair | CLR | 18.3 | 13.9 | 76% | 75.95 | 1012.2 | |||||||
| 09 | 19:53 | W 19 | 16.09 | Fair | CLR | 20 | 13.3 | 65% | 75.9 | 1011.4 | |||||||
| 09 | 18:53 | W 17 | 16.09 | Fair | CLR | 23.9 | 13.9 | 54% | 25 | 75.87 | 1010.9 | ||||||
| 09 | 17:53 | W 24 | 16.09 | Fair | CLR | 26.7 | 13.9 | 45% | 27 | 75.82 | 1010.5 | ||||||
| 09 | 16:53 | W 26 | 16.09 | Fair | CLR | 28.3 | 12.2 | 30.6 | 21.7 | 37% | 28 | 75.82 | 1010.3 | ||||
| 09 | 15:53 | W 24 | 16.09 | Fair | CLR | 30 | 12.8 | 35% | 29 | 75.82 | 1010.3 | ||||||
| 09 | 14:53 | W 24 | 16.09 | Fair | CLR | 30 | 12.8 | 35% | 29 | 75.87 | 1010.9 | ||||||
| 09 | 13:53 | NW 13 G 31 | 16.09 | Fair | CLR | 29.4 | 13.3 | 37% | 29 | 75.92 | 1011.5 | ||||||
| 09 | 12:53 | NW 17 | 16.09 | Fair | CLR | 28.3 | 15 | 44% | 28 | 75.95 | 1012.1 | ||||||
| 09 | 11:53 | Vrbl 6 | 16.09 | Fair | CLR | 26.1 | 13.3 | 45% | 26 | 76 | 1012.7 | ||||||
| 09 | 10:53 | Calm | 9.66 | Fair with Haze | CLR | 22.2 | 13.9 | 22.2 | 14.4 | 59% | 76.05 | 1013.4 | |||||
| 09 | 09:53 | Calm | 6.44 | Partly Cloudy with Haze | SCT010 | 18.3 | 13.9 | 76% | 76.07 | 1013.7 | |||||||
| 09 | 08:53 | Calm | 3.22 | Fog/Mist | OVC006 | 16.1 | 13.9 | 87% | 76.1 | 1014.1 | |||||||
| 09 | 07:53 | Calm | 4.02 | Fog/Mist | OVC005 | 15 | 13.9 | 93% | 76.1 | 1014.0 | |||||||
| 09 | 06:53 | Calm | 3.22 | Fog/Mist | OVC003 | 14.4 | 13.9 | 97% | 76.07 | 1013.8 | |||||||
| 09 | 05:53 | SW 6 | 4.83 | Fog/Mist | OVC004 | 14.4 | 13.9 | 97% | 76.05 | 1013.3 | |||||||
| 09 | 04:53 | Calm | 4.83 | Fog/Mist | OVC004 | 14.4 | 13.9 | 15.6 | 12.2 | 97% | 76.05 | 1013.2 | |||||
| 09 | 03:53 | NW 6 | 4.83 | Fog/Mist | OVC004 | 14.4 | 13.9 | 97% | 76.05 | 1013.3 | |||||||
| 09 | 02:53 | W 7 | 6.44 | Fog/Mist | CLR | 13.3 | 12.2 | 93% | 76.05 | 1013.4 | |||||||
| 09 | 01:53 | Calm | 9.66 | Fog/Mist | CLR | 14.4 | 12.8 | 90% | 76.07 | 1013.8 | |||||||
| 09 | 00:53 | Calm | 9.66 | Fog/Mist | CLR | 13.9 | 12.8 | 93% | 76.12 | 1014.2 | |||||||
| 08 | 23:53 | Calm | 11.27 | Fair | CLR | 15.6 | 13.3 | 86% | 76.12 | 1014.3 | |||||||
| 08 | 22:53 | SW 7 | 12.87 | Fair | CLR | 15.6 | 12.8 | 27.2 | 15 | 84% | 76.12 | 1014.5 | |||||
| 08 | 21:53 | W 11 | 16.09 | Fair | CLR | 16.1 | 13.3 | 84% | 76.12 | 1014.4 | |||||||
| 08 | 20:53 | W 13 | 16.09 | Fair | CLR | 17.2 | 13.3 | 78% | 76.07 | 1013.8 | |||||||
| 08 | 19:53 | W 17 | 16.09 | Fair | CLR | 19.4 | 13.3 | 68% | 76.02 | 1013.0 | |||||||
| 08 | 18:53 | W 19 | 16.09 | Fair | CLR | 22.8 | 13.3 | 55% | 75.97 | 1012.5 | |||||||
| 08 | 17:53 | SW 22 | 16.09 | Fair | CLR | 25.6 | 13.3 | 47% | 26 | 75.95 | 1012.1 | ||||||
| 08 | 16:53 | SW 22 | 16.09 | Fair | CLR | 27.2 | 13.9 | 28.9 | 19.4 | 44% | 27 | 75.97 | 1012.3 | ||||
| 08 | 15:53 | W 19 G 31 | 16.09 | Fair | CLR | 28.3 | 13.9 | 41% | 28 | 76 | 1012.8 | ||||||
| 08 | 14:53 | W 15 | 16.09 | Fair | CLR | 27.8 | 13.3 | 41% | 28 | 76.05 | 1013.3 | ||||||
| 08 | 13:53 | NW 13 | 16.09 | Fair | CLR | 27.8 | 14.4 | 44% | 28 | 76.07 | 1013.8 | ||||||
| 08 | 12:53 | Calm | 16.09 | Fair | CLR | 26.7 | 13.9 | 45% | 27 | 76.12 | 1014.4 | ||||||
| 08 | 11:53 | Vrbl 7 | 16.09 | Fair with Haze | CLR | 23.9 | 13.9 | 54% | 25 | 76.17 | 1015.3 | ||||||
| 08 | 10:53 | Vrbl 6 | 11.27 | Fair with Haze | CLR | 20 | 13.3 | 20 | 14.4 | 65% | 76.25 | 1016.1 | |||||
| 08 | 09:53 | SW 7 | 8.05 | Overcast with Haze | OVC012 | 17.8 | 13.3 | 75% | 76.25 | 1016.3 | |||||||
| 08 | 08:53 | Calm | 8.05 | Overcast with Haze | OVC009 | 16.1 | 13.3 | 84% | 76.28 | 1016.5 | |||||||
| 08 | 07:53 | Calm | 8.05 | Fog/Mist | OVC009 | 15.6 | 13.3 | 86% | 76.3 | 1016.7 | |||||||
| 08 | 06:53 | Calm | 9.66 | Fog/Mist | OVC009 | 15 | 13.3 | 90% | 76.28 | 1016.5 | |||||||
| 08 | 05:53 | W 6 | 11.27 | Overcast | OVC007 | 14.4 | 13.3 | 93% | 76.25 | 1016.1 | |||||||
| 08 | 04:53 | NW 9 | 9.66 | Fog/Mist | OVC007 | 14.4 | 13.3 | 15.6 | 12.2 | 93% | 76.23 | 1015.6 | |||||
| 08 | 03:53 | Calm | 9.66 | Fog/Mist | FEW011 | 12.8 | 12.2 | 96% | 76.2 | 1015.4 | |||||||
| 08 | 02:53 | Calm | 11.27 | Fair | CLR | 13.3 | 12.2 | 93% | 76.2 | 1015.4 | |||||||
| 08 | 01:53 | W 6 | 14.48 | Fair | CLR | 13.3 | 12.2 | 93% | 76.23 | 1015.7 | |||||||
| 08 | 00:53 | Calm | 16.09 | Fair | CLR | 13.9 | 12.2 | 90% | 76.25 | 1016.1 | |||||||
| 07 | 23:53 | W 7 | 16.09 | Fair | CLR | 15 | 12.8 | 87% | 76.25 | 1016.1 | |||||||
| 07 | 22:53 | W 6 | 16.09 | Fair | CLR | 15.6 | 12.8 | 26.1 | 15 | 84% | 76.23 | 1015.9 | |||||
| 07 | 21:53 | W 13 | 16.09 | Fair | CLR | 16.1 | 12.8 | 81% | 76.23 | 1015.7 | |||||||
| 07 | 20:53 | W 19 | 16.09 | Fair | CLR | 18.3 | 12.8 | 70% | 76.15 | 1015.0 | |||||||
| 07 | 19:53 | W 17 | 16.09 | Fair | CLR | 20 | 12.8 | 63% | 76.1 | 1014.1 | |||||||
| 07 | 18:53 | SW 20 | 16.09 | Fair | CLR | 22.2 | 12.8 | 55% | 76.05 | 1013.4 | |||||||
| 07 | 17:53 | W 26 | 16.09 | A Few Clouds | FEW100 | 24.4 | 12.8 | 48% | 26 | 76 | 1012.9 | ||||||
| 07 | 16:53 | W 24 | 16.09 | A Few Clouds | FEW100 | 26.1 | 12.8 | 29.4 | 23.3 | 44% | 26 | 76 | 1012.9 | ||||
| 07 | 15:53 | SW 31 G 41 | 16.09 | A Few Clouds | FEW100 | 27.2 | 12.2 | 39% | 27 | 76 | 1012.6 | ||||||
| 07 | 14:53 | SW 28 | 16.09 | A Few Clouds | FEW150 | 27.8 | 12.8 | 40% | 27 | 76.05 | 1013.2 | ||||||
| 07 | 13:53 | W 24 G 35 | 16.09 | A Few Clouds | FEW150 | 28.9 | 12.2 | 36% | 28 | 76.07 | 1013.7 | ||||||
| 07 | 12:53 | W 19 G 31 | 9.66 | Haze Smoke | CLR | 28.3 | 11.7 | 36% | 28 | 76.12 | 1014.4 | ||||||
| 07 | 11:53 | W 11 | 16.09 | A Few Clouds | FEW100 | 26.1 | 11.7 | 41% | 26 | 76.17 | 1015.2 | ||||||
| 07 | 10:53 | SW 13 | 16.09 | Fair | CLR | 23.9 | 11.7 | 24.4 | 10.6 | 46% | 25 | 76.23 | 1016.0 | ||||
| 07 | 09:53 | Calm | 16.09 | Fair | CLR | 22.2 | 11.1 | 50% | 76.25 | 1016.3 | |||||||
| 07 | 08:53 | Calm | 16.09 | Fair | CLR | 18.3 | 10.6 | 61% | 76.28 | 1016.5 | |||||||
| 07 | 07:53 | Calm | 16.09 | NULL | NULL | 15.6 | 11.1 | 75% | 76.28 | 1016.6 | |||||||
| Date | Time (pdt) | Wind (kph) | Vis. (km) | Weather | Sky Cond. | Air | Dwpt | Max. | Min. | Relative Humidity | Wind Chill (°C) | Heat Index (°C) | altimeter (cm) | sea level (mb) | 1 hr | 3 hr | 6 hr |
| 6 hour | |||||||||||||||||
| Temperature (ºC) | Pressure | Precipitation (cm) | |||||||||||||||